CAPE
0 0 0 0 0 0 0 22 195 530 711 683 760 729 610 529 514 447 351 239 159 108 0 0 0 0 0 0 0 0 0 0 0 0 0 0 0 0 2 0 0 0 0
0 0 0 0 0 0 0 0 0 46 333 642 724 805 689 570 489 391 408 326 130 26 0 0 0 0 0 0 0 0 0 0 0 0 0 0 0 0 0 0 0 0 0
0 0 0 0 0 0 0 0 0 0 107 550 766 763 727 662 571 490 386 309 61 1 0 0 0 0 0 0 0 0 0 0 0 0 0 0 0 0 2 1 0 0 0
0 0 0 0 0 0 0 0 0 0 0 323 669 809 775 773 691 537 402 174 35 0 0 0 0 0 0 0 0 0 0 0 0 0 0 0 0 0 0 1 2 0 0
0 0 0 0 0 0 0 0 0 0 0 107 530 819 804 776 636 477 228 24 0 0 0 0 0 0 0 0 0 0 0 0 0 0 0 0 0 0 0 0 0 0 0
0 0 0 0 0 0 0 0 0 0 0 18 422 822 762 682 505 233 240 0 0 0 0 0 0 0 0 0 0 0 0 0 0 0 0 0 0 0 0 0 0 0 0
0 0 0 0 0 0 0 0 0 0 0 6 402 731 838 620 237 1 0 0 0 0 0 0 0 0 0 0 0 0 0 0 0 0 0 0 0 0 0 0 0 0 0
0 0 0 0 0 0 0 0 0 0 0 0 338 589 735 580 2 1 0 0 0 0 0 0 0 0 0 0 0 0 0 0 0 0 0 0 0 0 0 0 0 0 0
0 0 0 0 0 0 0 0 0 0 0 0 324 573 632 541 1 1 0 0 0 0 0 0 0 0 0 0 0 0 0 0 0 0 0 0 0 0 0 0 0 0 0
0 0 0 0 0 0 0 0 0 0 0 1 148 615 549 323 1 1 0 0 0 0 0 0 0 0 0 0 0 0 0 0 0 0 0 0 0 0 0 0 0 0 0
0 0 0 0 0 0 0 0 0 0 4 5 206 187 0 0 0 1 0 0 0 0 0 0 0 0 0 0 0 0 0 0 0 0 0 0 0 0 0 0 0 0 0
0 0 0 0 0 1 0 0 0 8 6 27 218 34 3 0 0 1 1 0 0 0 0 0 0 0 0 0 0 0 0 0 0 0 0 0 0 0 0 0 0 0 0
0 0 0 0 0 1 1 0 2 6 12 118 145 24 0 1 0 0 1 0 0 0 0 0 0 0 0 0 0 0 0 0 0 0 0 0 0 0 0 0 0 0 0
0 2 7 11 9 5 4 2 5 11 36 129 67 26 1 1 0 0 0 0 0 0 0 0 0 0 0 0 0 0 0 0 0 0 0 0 0 0 0 0 0 0 0
7 8 6 9 6 2 5 4 13 39 142 81 13 1 0 0 0 0 0 0 0 0 0 0 0 0 0 0 0 0 0 0 0 0 0 0 0 0 0 0 0 0 0
9 7 9 10 8 10 16 11 1 0 39 0 0 0 0 0 0 1 1 0 0 0 0 0 0 0 0 0 0 0 0 0 0 0 0 0 0 0 0 0 0 0 0
7 7 9 6 6 9 14 13 4 0 1 0 0 0 0 0 1 1 1 0 0 0 0 0 0 0 0 0 0 0 0 0 0 0 0 0 0 0 0 0 0 0 0
4 0 6 9 10 5 3 6 18 0 0 0 1 0 1 1 1 0 0 0 0 0 0 0 0 0 0 0 0 0 0 0 0 0 0 0 0 0 0 0 0 0 0
5 2 4 5 7 13 8 17 8 0 0 0 0 1 0 0 0 0 0 0 0 0 0 0 0 0 0 0 0 0 0 0 0 0 0 0 0 0 0 0 0 0 0
9 0 2 5 5 4 9 1 0 0 0 0 0 1 1 0 0 0 0 0 0 0 0 0 0 0 0 0 0 0 0 0 0 0 0 0 0 0 0 0 0 0 0
5 1 0 1 12 19 13 0 0 0 0 0 0 3 0 0 1 0 1 0 0 0 0 0 0 0 0 0 0 0 0 0 0 0 0 0 0 0 0 0 0 0 0
2 7 0 2 0 0 1 0 0 0 1 1 3 0 0 1 0 0 0 0 0 0 0 0 0 0 0 0 0 0 0 0 0 0 0 0 0 0 0 0 0 0 0
1 1 1 1 0 0 0 1 1 2 2 0 1 0 1 1 0 0 0 0 0 0 0 0 0 0 0 0 0 0 0 0 0 0 0 0 0 0 0 0 0 0 0
0 0 0 1 1 1 1 1 1 0 1 3 1 0 0 0 0 0 0 0 0 0 0 0 0 0 0 0 0 0 0 0 0 0 0 0 0 0 0 0 0 0 0
0 1 1 1 1 1 0 0 1 1 1 1 1 0 0 0 0 0 0 0 0 0 0 0 0 0 0 0 0 0 0 0 0 0 0 0 0 0 0 0 0 0 0
1 0 0 0 1 1 0 1 1 1 2 2 2 1 1 0 0 0 0 0 0 0 0 0 0 0 0 0 0 0 0 0 0 0 0 0 0 0 0 0 0 0 0
CIN
-0 -0 -0 -0 -0 -0 -0 -502 -203 -91 -87 -87 -74 -58 -61 -48 -38 -9 -6 -24 -49 -74 -5 -0 -0 -0 -0 -0 -0 -0 -0 -0 -0 -0 -0 -0 -0 -0 -0 -0 -0 -0 -0
-0 -0 -0 -0 -0 -0 -0 -0 -5 -367 -109 -74 -66 -32 -30 -36 -35 -16 -2 -19 -61 -101 -0 -0 -0 -0 -0 -0 -0 -0 -0 -0 -0 -0 -0 -0 -0 -0 -0 -0 -0 -0 -0
-0 -0 -0 -0 -0 -0 -0 -0 -0 -0 -189 -56 -42 -34 -20 -28 -13 -10 -2 -1 -79 -48 -0 -0 -0 -0 -0 -0 -0 -0 -0 -0 -0 -0 -0 -0 -0 -0 -0 -0 -0 -0 -0
-0 -0 -0 -0 -0 -0 -0 -0 -0 -0 -0 -47 -34 -35 -22 -10 -0 -0 -0 -13 -85 -0 -0 -0 -0 -0 -0 -0 -0 -0 -0 -0 -0 -0 -0 -0 -0 -0 -0 -0 -0 -0 -0
-0 -0 -0 -0 -0 -0 -0 -0 -0 -0 -0 -92 -23 -22 -10 -9 -1 -6 -3 -110 -0 -0 -0 -0 -0 -0 -0 -0 -0 -0 -0 -0 -0 -0 -0 -0 -0 -0 -0 -0 -0 -0 -0
-0 -0 -0 -0 -0 -0 -0 -0 -0 -0 -0 -95 -28 -4 -2 -3 -16 -70 -9 -0 -0 -0 -0 -0 -0 -0 -0 -0 -0 -0 -0 -0 -0 -0 -0 -0 -0 -0 -0 -0 -0 -0 -0
-0 -0 -0 -0 -0 -0 -0 -0 -0 -0 -0 -65 -25 -5 -0 -0 -70 -0 -0 -0 -0 -0 -0 -0 -0 -0 -0 -0 -0 -0 -0 -0 -0 -0 -0 -0 -0 -0 -0 -0 -0 -0 -0
-0 -0 -0 -0 -0 -0 -0 -0 -0 -0 -0 -0 -37 -22 -1 -0 -0 -0 -0 -0 -0 -0 -0 -0 -0 -0 -0 -0 -0 -0 -0 -0 -0 -0 -0 -0 -0 -0 -0 -0 -0 -0 -0
-0 -0 -0 -0 -0 -0 -0 -0 -0 -0 -0 -0 -44 -24 -0 -0 -0 -0 -0 -0 -0 -0 -0 -0 -0 -0 -0 -0 -0 -0 -0 -0 -0 -0 -0 -0 -0 -0 -0 -0 -0 -0 -0
-0 -0 -0 -0 -0 -0 -0 -0 -0 -0 -0 -0 -73 -7 -0 -4 -0 -0 -0 -0 -0 -0 -0 -0 -0 -0 -0 -0 -0 -0 -0 -0 -0 -0 -0 -0 -0 -0 -0 -0 -0 -0 -0
-0 -0 -0 -0 -0 -0 -0 -0 -0 -0 -0 -47 -47 -51 -0 -0 -0 -0 -0 -0 -0 -0 -0 -0 -0 -0 -0 -0 -0 -0 -0 -0 -0 -0 -0 -0 -0 -0 -0 -0 -0 -0 -0
-0 -0 -0 -0 -0 -1 -1 -0 -0 -0 -0 -105 -6 -80 -27 -0 -0 -0 -0 -0 -0 -0 -0 -0 -0 -0 -0 -0 -0 -0 -0 -0 -0 -0 -0 -0 -0 -0 -0 -0 -0 -0 -0
-0 -0 -0 -0 -0 -0 -0 -0 -0 -0 -0 -17 -9 -99 -0 -0 -0 -0 -0 -0 -0 -0 -0 -0 -0 -0 -0 -0 -0 -0 -0 -0 -0 -0 -0 -0 -0 -0 -0 -0 -0 -0 -0
-0 -1 -1 -1 -0 -0 -0 -1 -0 -0 -61 -29 -56 -173 -49 -0 -0 -0 -0 -0 -0 -0 -0 -0 -0 -0 -0 -0 -0 -0 -0 -0 -0 -0 -0 -0 -0 -0 -0 -0 -0 -0 -0
-0 -0 -1 -1 -0 -0 -0 -0 -0 -82 -15 -98 -301 -89 -0 -0 -0 -0 -0 -0 -0 -0 -0 -0 -0 -0 -0 -0 -0 -0 -0 -0 -0 -0 -0 -0 -0 -0 -0 -0 -0 -0 -0
-0 -0 -0 -0 -0 -0 -0 -0 -1 -0 -113 -0 -0 -0 -0 -0 -0 -0 -0 -0 -0 -0 -0 -0 -0 -0 -0 -0 -0 -0 -0 -0 -0 -0 -0 -0 -0 -0 -0 -0 -0 -0 -0
-0 -0 -0 -0 -0 -0 -0 -0 -0 -0 -0 -0 -0 -0 -0 -0 -0 -0 -0 -0 -0 -0 -0 -0 -0 -0 -0 -0 -0 -0 -0 -0 -0 -0 -0 -0 -0 -0 -0 -0 -0 -0 -0
-0 -0 -0 -0 -0 -1 -0 -0 -33 -23 -0 -0 -0 -0 -0 -0 -0 -0 -0 -0 -0 -0 -0 -0 -0 -0 -0 -0 -0 -0 -0 -0 -0 -0 -0 -0 -0 -0 -0 -0 -0 -0 -0
-0 -0 -0 -0 -1 -0 -1 -4 -109 -0 -0 -0 -0 -0 -0 -0 -0 -0 -0 -0 -0 -0 -0 -0 -0 -0 -0 -0 -0 -0 -0 -0 -0 -0 -0 -0 -0 -0 -0 -0 -0 -0 -0
-0 -0 -0 -0 -0 -0 -6 -2 -0 -0 -0 -0 -0 -0 -0 -0 -0 -0 -0 -0 -0 -0 -0 -0 -0 -0 -0 -0 -0 -0 -0 -0 -0 -0 -0 -0 -0 -0 -0 -0 -0 -0 -0
-0 -0 -0 -0 -14 -2 -14 -0 -0 -0 -0 -0 -0 -0 -0 -0 -0 -0 -0 -0 -0 -0 -0 -0 -0 -0 -0 -0 -0 -0 -0 -0 -0 -0 -0 -0 -0 -0 -0 -0 -0 -0 -0
-0 -0 -0 -0 -5 -0 -0 -0 -0 -0 -0 -0 -0 -0 -0 -0 -0 -0 -0 -0 -0 -0 -0 -0 -0 -0 -0 -0 -0 -0 -0 -0 -0 -0 -0 -0 -0 -0 -0 -0 -0 -0 -0
-0 -0 -0 -0 -0 -0 -0 -0 -0 -0 -0 -0 -0 -0 -0 -0 -0 -0 -0 -0 -0 -0 -0 -0 -0 -0 -0 -0 -0 -0 -0 -0 -0 -0 -0 -0 -0 -0 -0 -0 -0 -0 -0
-0 -0 -0 -0 -0 -0 -0 -0 -0 -0 -0 -0 -0 -0 -0 -0 -0 -0 -0 -0 -0 -0 -0 -0 -0 -0 -0 -0 -0 -0 -0 -0 -0 -0 -0 -0 -0 -0 -0 -0 -0 -0 -0
-0 -0 -0 -0 -0 -0 -0 -0 -0 -0 -0 -0 -0 -0 -1 -1 -0 -0 -0 -0 -0 -0 -0 -0 -0 -0 -0 -0 -0 -0 -0 -0 -0 -0 -0 -0 -0 -0 -0 -0 -0 -0 -0
-0 -0 -0 -0 -0 -0 -0 -0 -0 -0 -0 -0 -0 -0 -0 -1 -0 -0 -0 -0 -0 -0 -0 -0 -0 -0 -0 -0 -0 -0 -0 -0 -0 -0 -0 -0 -0 -0 -0 -0 -0 -0 -0
Wind_Speed
2 4 4 5 6 5 5 7 8 8 10 12 13 13 13 13 13 14 16 15 16 13 9 11 11 7 7 6 5 4 4 3 5 2 2 2 3 6 8 8 9 6 5
5 5 5 5 6 6 5 7 7 9 10 12 12 13 14 14 14 14 16 16 18 16 12 12 10 7 9 8 7 7 6 4 5 8 3 3 3 4 7 9 7 5 4
4 4 6 6 6 7 7 6 8 10 11 11 11 14 15 15 14 15 18 18 17 16 14 13 12 12 10 7 7 7 6 4 4 7 5 2 2 5 5 4 6 4 3
5 6 7 7 7 7 8 8 9 10 11 12 12 14 14 14 14 15 15 16 15 13 13 14 14 15 14 12 9 8 7 7 6 8 5 4 2 4 4 7 5 2 3
7 7 10 8 6 7 9 10 10 11 11 12 13 14 13 12 12 16 15 16 14 11 11 11 12 14 17 15 11 9 10 7 8 8 5 3 3 6 7 4 3 3 2
8 10 11 7 6 8 10 11 10 11 12 13 14 14 13 10 14 19 21 15 14 16 14 10 10 14 14 15 13 18 16 13 9 7 4 7 5 6 4 5 4 4 3
10 11 10 8 8 9 11 12 12 11 12 13 14 13 14 13 15 17 19 13 14 13 12 12 11 8 13 12 13 14 10 9 16 9 10 8 7 9 8 6 4 3 2
13 11 8 8 9 10 11 12 13 11 12 12 13 14 13 12 19 21 20 14 12 14 14 15 14 14 13 14 14 11 9 7 6 4 7 8 5 9 7 5 6 6 4
12 8 8 9 11 12 12 13 12 12 11 12 13 15 14 13 24 22 21 14 11 12 11 13 14 15 16 19 15 13 10 6 8 10 11 10 14 12 10 9 7 6 3
8 8 9 11 13 14 13 13 13 13 13 10 13 15 13 15 22 28 19 11 13 10 9 10 17 17 20 19 16 15 12 9 11 11 9 11 11 11 6 4 7 6 4
11 12 13 13 14 14 13 11 13 13 12 12 14 8 5 5 14 25 26 15 13 11 11 10 9 23 21 19 19 14 14 13 12 11 10 8 8 7 5 6 5 5 4
13 13 14 14 11 10 11 12 13 12 12 12 8 6 5 6 9 19 27 23 20 15 13 10 11 21 19 18 14 21 20 16 10 9 9 8 8 8 7 7 8 9 8
13 14 14 13 11 11 11 14 11 11 11 11 7 6 6 7 8 14 23 25 21 14 10 13 23 21 20 13 24 24 19 11 11 10 9 9 8 9 10 9 9 11 11
14 15 13 12 11 11 9 10 12 10 11 9 8 8 7 8 7 7 5 16 21 16 21 16 18 16 12 13 17 15 11 11 12 11 10 8 9 8 8 7 8 7 8
15 15 14 10 10 12 11 11 10 12 10 11 11 10 10 9 10 14 16 13 14 17 18 12 12 11 10 10 11 10 9 9 10 9 10 10 10 9 8 6 8 5 8
14 12 11 9 9 9 9 10 12 8 16 12 9 12 7 11 21 19 17 20 27 27 14 14 13 12 12 12 13 11 10 11 9 10 10 10 10 9 9 7 7 8 9
15 14 9 9 9 9 9 9 9 3 2 15 14 12 15 17 23 23 22 28 30 21 13 14 13 13 13 12 12 12 11 9 10 9 10 10 10 9 9 8 8 8 7
15 18 9 8 9 8 9 9 8 6 5 5 7 11 15 24 22 22 28 26 13 9 11 13 13 12 12 12 12 11 10 9 9 9 9 9 9 10 10 9 9 9 8
10 9 9 9 8 9 8 9 6 5 6 6 6 10 8 24 29 30 28 15 15 12 12 11 12 12 12 11 11 10 10 10 10 9 9 9 9 10 9 9 9 8 8
10 13 9 8 8 9 9 6 6 6 7 7 7 10 9 12 11 14 11 12 12 11 11 11 10 10 11 11 10 11 10 9 10 9 9 9 8 8 9 9 9 10 9
7 6 10 8 9 8 7 8 8 8 8 8 8 11 17 14 13 10 12 11 12 11 10 9 9 9 9 10 10 9 9 9 10 10 9 8 9 8 8 8 8 8 9
6 6 5 6 6 7 7 8 8 8 9 10 8 8 10 11 11 10 11 11 11 10 10 10 9 9 10 11 11 11 10 10 9 9 10 10 9 8 8 9 8 8 9
4 4 4 5 6 8 7 7 8 8 9 9 11 12 9 10 10 10 11 11 10 10 9 9 10 10 9 9 9 11 11 10 9 10 10 9 9 9 9 10 10 9 9
3 5 6 7 7 8 8 8 7 8 9 10 11 11 10 11 12 12 11 10 9 9 9 9 9 12 10 10 8 9 8 8 8 10 14 11 9 9 9 9 10 11 9
3 4 6 7 8 8 10 9 9 9 10 10 10 9 10 11 12 11 11 10 10 9 9 9 9 13 14 14 12 11 10 12 11 10 8 11 12 13 10 9 10 9 9
7 7 7 7 7 7 7 8 8 9 10 10 10 10 11 12 11 11 10 9 8 8 10 7 11 14 15 11 13 13 12 12 12 11 9 9 10 8 8 10 13 9 10
Wind_Direction
294 279 274 290 298 300 284 284 280 270 252 242 236 221 211 206 208 214 214 214 208 209 187 190 196 156 180 170 150 141 138 132 126 123 97 139 126 154 148 156 145 138 131
234 240 267 281 287 293 287 287 287 283 271 253 242 229 219 213 208 215 222 210 207 197 190 181 185 159 175 166 159 163 149 145 131 145 132 136 113 143 152 156 147 155 146
241 258 268 264 279 277 275 275 285 289 280 267 246 237 228 218 213 211 218 216 205 190 182 182 174 162 162 161 153 155 146 148 136 144 136 127 111 134 141 145 145 162 190
275 266 262 262 262 270 278 278 280 281 280 273 260 245 232 219 220 213 213 202 199 190 177 181 167 170 168 161 152 151 139 133 122 131 118 121 133 118 149 160 153 179 199
249 252 256 254 256 268 282 285 285 280 279 272 266 253 234 222 225 206 197 189 173 169 167 171 172 166 162 162 149 153 140 132 142 136 131 138 152 148 181 160 133 147 173
247 253 255 247 256 268 277 277 279 275 276 273 262 250 228 219 206 198 198 185 169 167 166 160 147 146 153 149 151 152 152 150 150 142 146 163 163 152 153 156 124 149 185
259 264 250 246 254 263 271 279 274 273 273 269 258 252 238 220 188 180 176 175 166 161 159 153 154 154 151 148 137 127 130 156 160 146 160 178 154 170 153 147 137 134 150
265 249 234 248 253 260 269 273 274 268 267 266 258 245 232 218 181 175 165 161 160 155 163 160 156 151 153 147 139 127 123 121 133 141 167 163 138 151 155 144 134 114 99
256 236 240 241 262 270 262 264 267 268 266 265 258 250 230 221 179 176 166 159 153 150 155 153 153 151 149 143 135 131 125 104 77 96 104 112 117 127 139 121 129 140 119
258 249 255 264 263 265 257 257 265 265 268 267 263 247 237 220 182 167 159 156 151 143 151 144 149 149 147 145 140 143 136 144 135 122 104 96 116 120 81 113 145 138 122
270 261 260 258 257 254 250 253 263 265 263 268 258 203 141 185 183 176 156 160 156 147 152 150 155 144 147 142 142 149 146 140 129 119 116 118 127 122 100 100 103 128 130
262 258 259 261 251 248 241 256 259 257 264 261 221 157 148 159 164 192 153 152 151 152 159 155 144 144 137 132 131 124 127 130 128 125 125 127 135 126 115 106 96 86 68
262 261 257 254 251 242 242 253 262 252 249 245 197 165 151 175 172 240 149 139 144 142 148 143 140 135 125 110 129 131 134 136 136 135 131 130 129 122 118 105 93 89 77
262 262 257 252 242 239 240 252 253 246 247 200 180 184 164 166 165 155 204 133 126 124 118 128 138 131 116 127 133 140 142 146 146 141 133 129 127 129 123 129 115 111 92
258 259 257 248 233 246 242 246 244 247 231 194 182 175 176 165 170 164 157 148 141 135 122 128 134 136 132 142 154 144 143 145 144 134 142 147 140 136 134 136 127 116 115
253 252 246 237 237 235 238 255 239 253 240 222 184 172 177 148 151 153 157 143 132 136 136 147 149 148 151 156 158 153 157 158 150 148 151 151 147 150 147 150 134 135 136
247 249 241 230 235 233 235 241 251 236 258 182 170 152 151 153 153 152 143 136 140 134 146 153 155 155 157 160 160 162 164 165 154 159 156 157 156 153 151 159 150 148 148
243 240 235 227 229 226 230 231 233 206 168 148 46 166 148 143 139 137 135 127 133 127 147 153 156 157 159 156 160 165 156 155 161 164 158 155 161 160 161 166 167 160 166
242 230 218 218 227 225 228 232 185 174 138 129 109 67 120 139 140 142 146 142 152 145 150 157 160 159 159 160 161 161 163 163 163 156 150 153 159 161 165 170 167 162 156
252 218 210 213 213 222 229 177 155 144 138 136 127 124 122 125 142 156 146 150 144 142 147 152 153 156 161 157 159 159 153 158 160 150 154 154 156 156 156 157 155 160 171
233 207 208 221 232 196 173 162 152 151 145 135 136 146 151 146 153 154 148 143 139 138 135 142 152 146 149 151 152 150 160 165 159 153 158 155 153 151 153 151 151 161 159
192 207 191 192 162 147 149 140 145 145 135 131 131 140 145 146 147 145 140 139 140 137 143 153 153 157 158 160 157 155 164 161 152 152 153 156 155 151 151 150 155 157 157
169 157 150 149 135 125 120 126 136 138 134 131 135 149 151 146 136 139 138 134 134 139 147 156 158 160 156 151 155 155 159 159 156 149 148 148 151 150 156 155 160 158 165
147 142 137 132 131 119 118 124 127 112 130 135 145 147 143 135 133 135 129 127 127 137 145 146 151 148 139 141 148 150 150 142 148 150 144 150 150 150 151 160 164 165 160
64 109 121 133 132 123 125 128 123 132 134 137 138 133 132 125 126 123 120 128 137 142 138 136 142 144 141 142 146 144 132 134 138 135 144 145 150 152 157 160 159 163 158
44 64 72 86 99 106 114 120 125 126 132 132 130 126 130 125 119 119 125 129 132 125 123 132 143 140 143 145 141 129 133 128 133 133 138 145 146 147 151 151 160 159 162